Year,Month,Day,Hour,Minute,Value (Times are PST for temperature in C)
2014,09,22,00,00,19.00
2014,09,22,00,01,19.00
2014,09,22,00,02,18.90
2014,09,22,00,03,18.90
2014,09,22,00,04,19.00
2014,09,22,00,05,19.00
2014,09,22,00,06,19.00
2014,09,22,00,07,19.00
2014,09,22,00,08,19.10
2014,09,22,00,09,19.10
2014,09,22,00,10,19.10
2014,09,22,00,11,19.00
2014,09,22,00,12,19.00
2014,09,22,00,13,19.00
2014,09,22,00,14,19.00
2014,09,22,00,15,19.00
2014,09,22,00,16,19.00
2014,09,22,00,17,19.00
2014,09,22,00,18,19.00
2014,09,22,00,19,19.00
2014,09,22,00,20,19.00
2014,09,22,00,21,19.00
2014,09,22,00,22,19.00
2014,09,22,00,23,19.00
2014,09,22,00,24,18.90
2014,09,22,00,25,18.90
2014,09,22,00,26,18.90
2014,09,22,00,27,18.90
2014,09,22,00,28,18.90
2014,09,22,00,29,18.90
2014,09,22,00,30,18.90
2014,09,22,00,31,18.90
2014,09,22,00,32,18.90
2014,09,22,00,33,18.90
2014,09,22,00,34,18.90
2014,09,22,00,35,18.90
2014,09,22,00,36,18.90
2014,09,22,00,37,18.90
2014,09,22,00,38,18.90
2014,09,22,00,39,18.90
2014,09,22,00,40,18.90
2014,09,22,00,41,18.90
2014,09,22,00,42,18.90
2014,09,22,00,43,18.90
2014,09,22,00,44,18.90
2014,09,22,00,45,18.80
2014,09,22,00,46,18.80
2014,09,22,00,47,18.80
2014,09,22,00,48,18.80
2014,09,22,00,49,18.80
2014,09,22,00,50,18.70
2014,09,22,00,51,18.70
2014,09,22,00,52,18.70
2014,09,22,00,53,18.70
2014,09,22,00,54,18.70
2014,09,22,00,55,18.70
2014,09,22,00,56,18.70
2014,09,22,00,57,18.70
2014,09,22,00,58,18.70
2014,09,22,00,59,18.60
2014,09,22,01,00,18.60
2014,09,22,01,01,18.60
2014,09,22,01,02,18.60
2014,09,22,01,03,18.60
2014,09,22,01,04,18.60
2014,09,22,01,05,18.60
2014,09,22,01,06,18.60
2014,09,22,01,07,18.60
2014,09,22,01,08,18.60
2014,09,22,01,09,18.60
2014,09,22,01,10,18.60
2014,09,22,01,11,18.60
2014,09,22,01,12,18.60
2014,09,22,01,13,18.60
2014,09,22,01,14,18.60
2014,09,22,01,15,18.60
2014,09,22,01,16,18.70
2014,09,22,01,17,18.70
2014,09,22,01,18,18.60
2014,09,22,01,19,18.60
2014,09,22,01,20,18.60
2014,09,22,01,21,18.60
2014,09,22,01,22,18.60
2014,09,22,01,23,18.60
2014,09,22,01,24,18.60
2014,09,22,01,25,18.60
2014,09,22,01,26,18.60
2014,09,22,01,27,18.60
2014,09,22,01,28,18.60
2014,09,22,01,29,18.60
2014,09,22,01,30,18.60
2014,09,22,01,31,18.60
2014,09,22,01,32,18.60
2014,09,22,01,33,18.60
2014,09,22,01,34,18.60
2014,09,22,01,35,18.60
2014,09,22,01,36,18.60
2014,09,22,01,37,18.50
2014,09,22,01,38,18.50
2014,09,22,01,39,18.50
2014,09,22,01,40,18.50
2014,09,22,01,41,18.50
2014,09,22,01,42,18.50
2014,09,22,01,43,18.50
2014,09,22,01,44,18.40
2014,09,22,01,45,18.40
2014,09,22,01,46,18.40
2014,09,22,01,47,18.40
2014,09,22,01,48,18.40
2014,09,22,01,49,18.40
2014,09,22,01,50,18.40
2014,09,22,01,51,18.50
2014,09,22,01,52,18.50
2014,09,22,01,53,18.50
2014,09,22,01,54,18.50
2014,09,22,01,55,18.50
2014,09,22,01,56,18.50
2014,09,22,01,57,18.50
2014,09,22,01,58,18.40
2014,09,22,01,59,18.40
2014,09,22,02,00,18.40
2014,09,22,02,01,18.40
2014,09,22,02,02,18.40
2014,09,22,02,03,18.40
2014,09,22,02,04,18.40
2014,09,22,02,05,18.40
2014,09,22,02,06,18.40
2014,09,22,02,07,18.40
2014,09,22,02,08,18.40
2014,09,22,02,09,18.40
2014,09,22,02,10,18.40
2014,09,22,02,11,18.40
2014,09,22,02,12,18.40
2014,09,22,02,13,18.40
2014,09,22,02,14,18.40
2014,09,22,02,15,18.30
2014,09,22,02,16,18.30
2014,09,22,02,17,18.30
2014,09,22,02,18,18.30
2014,09,22,02,19,18.30
2014,09,22,02,20,18.40
2014,09,22,02,21,18.40
2014,09,22,02,22,18.40
2014,09,22,02,23,18.40
2014,09,22,02,24,18.40
2014,09,22,02,25,18.30
2014,09,22,02,26,18.30
2014,09,22,02,27,18.30
2014,09,22,02,28,18.30
2014,09,22,02,29,18.30
2014,09,22,02,30,18.30
2014,09,22,02,31,18.30
2014,09,22,02,32,18.30
2014,09,22,02,33,18.30
2014,09,22,02,34,18.30
2014,09,22,02,35,18.30
2014,09,22,02,36,18.30
2014,09,22,02,37,18.30
2014,09,22,02,38,18.30
2014,09,22,02,39,18.30
2014,09,22,02,40,18.30
2014,09,22,02,41,18.30
2014,09,22,02,42,18.30
2014,09,22,02,43,18.30
2014,09,22,02,44,18.30
2014,09,22,02,45,18.30
2014,09,22,02,46,18.30
2014,09,22,02,47,18.20
2014,09,22,02,48,18.30
2014,09,22,02,49,18.30
2014,09,22,02,50,18.30
2014,09,22,02,51,18.30
2014,09,22,02,52,18.20
2014,09,22,02,53,18.20
2014,09,22,02,54,18.20
2014,09,22,02,55,18.20
2014,09,22,02,56,18.20
2014,09,22,02,57,18.20
2014,09,22,02,58,18.20
2014,09,22,02,59,18.20
2014,09,22,03,00,18.20
2014,09,22,03,01,18.20
2014,09,22,03,02,18.20
2014,09,22,03,03,18.20
2014,09,22,03,04,18.20
2014,09,22,03,05,18.20
2014,09,22,03,06,18.20
2014,09,22,03,07,18.10
2014,09,22,03,08,18.10
2014,09,22,03,09,18.10
2014,09,22,03,10,18.10
2014,09,22,03,11,18.10
2014,09,22,03,12,18.10
2014,09,22,03,13,18.20
2014,09,22,03,14,18.20
2014,09,22,03,15,18.20
2014,09,22,03,16,18.20
2014,09,22,03,17,18.20
2014,09,22,03,18,18.20
2014,09,22,03,19,18.10
2014,09,22,03,20,18.10
2014,09,22,03,21,18.10
2014,09,22,03,22,18.10
2014,09,22,03,23,18.10
2014,09,22,03,24,18.10
2014,09,22,03,25,18.10
2014,09,22,03,26,18.10
2014,09,22,03,27,18.10
2014,09,22,03,28,18.10
2014,09,22,03,29,18.10
2014,09,22,03,30,18.10
2014,09,22,03,31,18.00
2014,09,22,03,32,18.10
2014,09,22,03,33,18.10
2014,09,22,03,34,18.10
2014,09,22,03,35,18.10
2014,09,22,03,36,18.10
2014,09,22,03,37,18.10
2014,09,22,03,38,18.10
2014,09,22,03,39,18.10
2014,09,22,03,40,18.10
2014,09,22,03,41,18.10
2014,09,22,03,42,18.10
2014,09,22,03,43,18.10
2014,09,22,03,44,18.10
2014,09,22,03,45,18.10
2014,09,22,03,46,18.10
2014,09,22,03,47,18.10
2014,09,22,03,48,18.10
2014,09,22,03,49,18.10
2014,09,22,03,50,18.10
2014,09,22,03,51,18.10
2014,09,22,03,52,18.10
2014,09,22,03,53,18.10
2014,09,22,03,54,18.10
2014,09,22,03,55,18.10
2014,09,22,03,56,18.10
2014,09,22,03,57,18.00
2014,09,22,03,58,18.00
2014,09,22,03,59,18.00
2014,09,22,04,00,18.00
2014,09,22,04,01,18.00
2014,09,22,04,02,17.90
2014,09,22,04,03,17.90
2014,09,22,04,04,17.90
2014,09,22,04,05,17.90
2014,09,22,04,06,17.90
2014,09,22,04,07,17.90
2014,09,22,04,08,17.80
2014,09,22,04,09,17.80
2014,09,22,04,10,17.80
2014,09,22,04,11,17.80
2014,09,22,04,12,17.80
2014,09,22,04,13,17.80
2014,09,22,04,14,17.80
2014,09,22,04,15,17.80
2014,09,22,04,16,17.80
2014,09,22,04,17,17.80
2014,09,22,04,18,17.80
2014,09,22,04,19,17.70
2014,09,22,04,20,17.70
2014,09,22,04,21,17.70
2014,09,22,04,22,17.70
2014,09,22,04,23,17.70
2014,09,22,04,24,17.70
2014,09,22,04,25,17.70
2014,09,22,04,26,17.60
2014,09,22,04,27,17.60
2014,09,22,04,28,17.60
2014,09,22,04,29,17.60
2014,09,22,04,30,17.60
2014,09,22,04,31,17.60
2014,09,22,04,32,17.60
2014,09,22,04,33,17.60
2014,09,22,04,34,17.60
2014,09,22,04,35,17.60
2014,09,22,04,36,17.60
2014,09,22,04,37,17.60
2014,09,22,04,38,17.50
2014,09,22,04,39,17.50
2014,09,22,04,40,17.50
2014,09,22,04,41,17.40
2014,09,22,04,42,17.40
2014,09,22,04,43,17.40
2014,09,22,04,44,17.40
2014,09,22,04,45,17.40
2014,09,22,04,46,17.40
2014,09,22,04,47,17.40
2014,09,22,04,48,17.40
2014,09,22,04,49,17.40
2014,09,22,04,50,17.40
2014,09,22,04,51,17.40
2014,09,22,04,52,17.40
2014,09,22,04,53,17.40
2014,09,22,04,54,17.40
2014,09,22,04,55,17.40
2014,09,22,04,56,17.40
2014,09,22,04,57,17.40
2014,09,22,04,58,17.40
2014,09,22,04,59,17.40
2014,09,22,05,00,17.40
2014,09,22,05,01,17.40
2014,09,22,05,02,17.40
2014,09,22,05,03,17.40
2014,09,22,05,04,17.40
2014,09,22,05,05,17.40
2014,09,22,05,09,17.50
2014,09,22,05,10,17.40
2014,09,22,05,11,17.50
2014,09,22,05,12,17.50
2014,09,22,05,13,17.50
2014,09,22,05,14,17.50
2014,09,22,05,15,17.50
2014,09,22,05,16,17.50
2014,09,22,05,17,17.50
2014,09,22,05,18,17.50
2014,09,22,05,19,17.50
2014,09,22,05,20,17.50
2014,09,22,05,21,17.50
2014,09,22,05,22,17.50
2014,09,22,05,23,17.40
2014,09,22,05,24,17.40
2014,09,22,05,25,17.40
2014,09,22,05,26,17.40
2014,09,22,05,27,17.40
2014,09,22,05,28,17.40
2014,09,22,05,29,17.40
2014,09,22,05,30,17.40
2014,09,22,05,31,17.30
2014,09,22,05,32,17.30
2014,09,22,05,33,17.30
2014,09,22,05,34,17.30
2014,09,22,05,35,17.20
2014,09,22,05,36,17.20
2014,09,22,05,37,17.20
2014,09,22,05,38,17.10
2014,09,22,05,39,17.10
2014,09,22,05,40,17.00
2014,09,22,05,41,17.00
2014,09,22,05,42,16.90
2014,09,22,05,43,16.90
2014,09,22,05,44,16.80
2014,09,22,05,45,16.70
2014,09,22,05,46,16.60
2014,09,22,05,47,16.40
2014,09,22,05,48,16.40
2014,09,22,05,49,16.30
2014,09,22,05,50,16.30
2014,09,22,05,51,16.20
2014,09,22,05,52,16.20
2014,09,22,05,53,16.20
2014,09,22,05,54,16.10
2014,09,22,05,55,16.10
2014,09,22,05,56,16.10
2014,09,22,05,57,16.10
2014,09,22,05,58,16.00
2014,09,22,05,59,16.00
2014,09,22,06,00,15.90
2014,09,22,06,01,15.90
2014,09,22,06,02,15.80
2014,09,22,06,03,15.80
2014,09,22,06,04,15.80
2014,09,22,06,05,15.80
2014,09,22,06,06,15.80
2014,09,22,06,07,15.80
2014,09,22,06,08,15.80
2014,09,22,06,09,15.70
2014,09,22,06,10,15.70
2014,09,22,06,11,15.70
2014,09,22,06,12,15.70
2014,09,22,06,13,15.60
2014,09,22,06,14,15.60
2014,09,22,06,15,15.60
2014,09,22,06,16,15.50
2014,09,22,06,17,15.50
2014,09,22,06,18,15.40
2014,09,22,06,19,15.40
2014,09,22,06,20,15.40
2014,09,22,06,21,15.40
2014,09,22,06,22,15.40
2014,09,22,06,23,15.40
2014,09,22,06,24,15.40
2014,09,22,06,25,15.40
2014,09,22,06,26,15.40
2014,09,22,06,27,15.30
2014,09,22,06,28,15.30
2014,09,22,06,29,15.30
2014,09,22,06,30,15.30
2014,09,22,06,31,15.30
2014,09,22,06,32,15.30
2014,09,22,06,33,15.20
2014,09,22,06,34,15.20
2014,09,22,06,35,15.20
2014,09,22,06,36,15.20
2014,09,22,06,37,15.20
2014,09,22,06,38,15.20
2014,09,22,06,39,15.10
2014,09,22,06,40,15.10
2014,09,22,06,41,15.10
2014,09,22,06,42,15.10
2014,09,22,06,43,15.10
2014,09,22,06,44,15.10
2014,09,22,06,45,15.10
2014,09,22,06,46,15.10
2014,09,22,06,47,15.10
2014,09,22,06,48,15.10
2014,09,22,06,49,15.00
2014,09,22,06,50,15.00
2014,09,22,06,51,15.00
2014,09,22,06,52,15.00
2014,09,22,06,53,15.00
2014,09,22,06,54,15.00
2014,09,22,06,55,15.00
2014,09,22,06,56,15.00
2014,09,22,06,57,15.00
2014,09,22,06,58,15.00
2014,09,22,06,59,15.00
2014,09,22,07,00,15.00
2014,09,22,07,01,15.00
2014,09,22,07,02,14.90
2014,09,22,07,03,14.90
2014,09,22,07,04,14.90
2014,09,22,07,05,14.90
2014,09,22,07,06,14.90
2014,09,22,07,07,14.80
2014,09,22,07,08,14.80
2014,09,22,07,09,14.80
2014,09,22,07,10,14.80
2014,09,22,07,11,14.80
2014,09,22,07,12,14.80
2014,09,22,07,13,14.70
2014,09,22,07,14,14.70
2014,09,22,07,15,14.70
2014,09,22,07,16,14.70
2014,09,22,07,17,14.70
2014,09,22,07,18,14.80
2014,09,22,07,19,14.80
2014,09,22,07,20,14.80
2014,09,22,07,21,14.80
2014,09,22,07,22,14.80
2014,09,22,07,23,14.80
2014,09,22,07,24,14.80
2014,09,22,07,25,14.80
2014,09,22,07,26,14.80
2014,09,22,07,27,14.80
2014,09,22,07,28,14.80
2014,09,22,07,29,14.80
2014,09,22,07,30,14.80
2014,09,22,07,31,14.80
2014,09,22,07,32,14.80
2014,09,22,07,33,14.80
2014,09,22,07,34,14.80
2014,09,22,07,35,14.80
2014,09,22,07,36,14.80
2014,09,22,07,37,14.80
2014,09,22,07,38,14.80
2014,09,22,07,39,14.70
2014,09,22,07,40,14.70
2014,09,22,07,41,14.70
2014,09,22,07,42,14.70
2014,09,22,07,43,14.70
2014,09,22,07,44,14.70
2014,09,22,07,45,14.70
2014,09,22,07,46,14.70
2014,09,22,07,47,14.70
2014,09,22,07,48,14.70
2014,09,22,07,49,14.70
2014,09,22,07,50,14.70
2014,09,22,07,51,14.70
2014,09,22,07,52,14.70
2014,09,22,07,53,14.70
2014,09,22,07,54,14.70
2014,09,22,07,55,14.70
2014,09,22,07,56,14.70
2014,09,22,07,57,14.70
2014,09,22,07,58,14.70
2014,09,22,07,59,14.70
2014,09,22,08,00,14.70
2014,09,22,08,01,14.70
2014,09,22,08,02,14.70
2014,09,22,08,03,14.70
2014,09,22,08,04,14.70
2014,09,22,08,05,14.70
2014,09,22,08,06,14.70
2014,09,22,08,07,14.70
2014,09,22,08,08,14.70
2014,09,22,08,09,14.70
2014,09,22,08,10,14.70
2014,09,22,08,11,14.80
2014,09,22,08,12,14.80
2014,09,22,08,13,14.80
2014,09,22,08,14,14.80
2014,09,22,08,15,14.80
2014,09,22,08,16,14.80
2014,09,22,08,17,14.80
2014,09,22,08,18,14.80
2014,09,22,08,19,14.80
2014,09,22,08,20,14.80
2014,09,22,08,21,14.90
2014,09,22,08,22,14.90
2014,09,22,08,23,14.90
2014,09,22,08,24,14.90
2014,09,22,08,25,15.00
2014,09,22,08,26,15.00
2014,09,22,08,27,15.00
2014,09,22,08,28,15.00
2014,09,22,08,29,15.10
2014,09,22,08,30,15.10
2014,09,22,08,31,15.10
2014,09,22,08,32,15.10
2014,09,22,08,33,15.20
2014,09,22,08,34,15.20
2014,09,22,08,35,15.20
2014,09,22,08,36,15.20
2014,09,22,08,37,15.20
2014,09,22,08,38,15.20
2014,09,22,08,39,15.20
2014,09,22,08,40,15.20
2014,09,22,08,41,15.20
2014,09,22,08,42,15.20
2014,09,22,08,43,15.30
2014,09,22,08,44,15.30
2014,09,22,08,45,15.30
2014,09,22,08,46,15.30
2014,09,22,08,47,15.30
2014,09,22,08,48,15.30
2014,09,22,08,49,15.30
2014,09,22,08,50,15.30
2014,09,22,08,51,15.30
2014,09,22,08,52,15.30
2014,09,22,08,53,15.40
2014,09,22,08,54,15.40
2014,09,22,08,55,15.40
2014,09,22,08,56,15.50
2014,09,22,08,57,15.60
2014,09,22,08,58,15.60
2014,09,22,08,59,15.60
2014,09,22,09,00,15.70
2014,09,22,09,01,15.70
2014,09,22,09,02,15.70
2014,09,22,09,03,15.70
2014,09,22,09,04,15.70
2014,09,22,09,05,15.70
2014,09,22,09,06,15.70
2014,09,22,09,07,15.80
2014,09,22,09,08,15.80
2014,09,22,09,09,15.80
2014,09,22,09,10,15.80
2014,09,22,09,11,15.80
2014,09,22,09,12,15.80
2014,09,22,09,13,15.80
2014,09,22,09,14,15.90
2014,09,22,09,15,15.90
2014,09,22,09,16,15.90
2014,09,22,09,17,15.90
2014,09,22,09,18,15.90
2014,09,22,09,19,15.90
2014,09,22,09,20,15.90
2014,09,22,09,21,16.00
2014,09,22,09,22,16.00
2014,09,22,09,23,16.10
2014,09,22,09,24,16.10
2014,09,22,09,25,16.20
2014,09,22,09,26,16.20
2014,09,22,09,27,16.20
2014,09,22,09,28,16.20
2014,09,22,09,29,16.30
2014,09,22,09,30,16.30
2014,09,22,09,31,16.30
2014,09,22,09,32,16.30
2014,09,22,09,33,16.30
2014,09,22,09,34,16.30
2014,09,22,09,35,16.30
2014,09,22,09,36,16.30
2014,09,22,09,37,16.30
2014,09,22,09,38,16.40
2014,09,22,09,39,16.40
2014,09,22,09,40,16.50
2014,09,22,09,41,16.60
2014,09,22,09,42,16.60
2014,09,22,09,43,16.70
2014,09,22,09,44,16.70
2014,09,22,09,45,16.80
2014,09,22,09,46,16.80
2014,09,22,09,47,16.80
2014,09,22,09,48,16.80
2014,09,22,09,49,16.90
2014,09,22,09,50,16.90
2014,09,22,09,51,16.90
2014,09,22,09,52,17.00
2014,09,22,09,53,17.00
2014,09,22,09,54,17.10
2014,09,22,09,55,17.10
2014,09,22,09,56,17.10
2014,09,22,09,57,17.10
2014,09,22,09,58,17.10
2014,09,22,09,59,17.10
2014,09,22,10,00,17.10
2014,09,22,10,01,17.10
2014,09,22,10,02,17.20
2014,09,22,10,03,17.20
2014,09,22,10,04,17.30
2014,09,22,10,05,17.40
2014,09,22,10,06,17.50
2014,09,22,10,07,17.60
2014,09,22,10,08,17.60
2014,09,22,10,09,17.50
2014,09,22,10,10,17.50
2014,09,22,10,11,17.50
2014,09,22,10,12,17.40
2014,09,22,10,13,17.40
2014,09,22,10,14,17.30
2014,09,22,10,15,17.30
2014,09,22,10,16,17.20
2014,09,22,10,17,17.20
2014,09,22,10,18,17.20
2014,09,22,10,19,17.20
2014,09,22,10,20,17.20
2014,09,22,10,21,17.30
2014,09,22,10,22,17.40
2014,09,22,10,23,17.40
2014,09,22,10,24,17.40
2014,09,22,10,25,17.40
2014,09,22,10,26,17.40
2014,09,22,10,27,17.40
2014,09,22,10,28,17.40
2014,09,22,10,29,17.40
2014,09,22,10,30,17.30
2014,09,22,10,31,17.30
2014,09,22,10,32,17.40
2014,09,22,10,33,17.40
2014,09,22,10,34,17.40
2014,09,22,10,35,17.40
2014,09,22,10,36,17.40
2014,09,22,10,37,17.40
2014,09,22,10,38,17.40
2014,09,22,10,39,17.40
2014,09,22,10,40,17.40
2014,09,22,10,41,17.40
2014,09,22,10,42,17.40
2014,09,22,10,43,17.40
2014,09,22,10,44,17.40
2014,09,22,10,45,17.40
2014,09,22,10,46,17.50
2014,09,22,10,47,17.50
2014,09,22,10,48,17.60
2014,09,22,10,49,17.60
2014,09,22,10,50,17.70
2014,09,22,10,51,17.70
2014,09,22,10,52,17.70
2014,09,22,10,53,17.70
2014,09,22,10,54,17.60
2014,09,22,10,55,17.70
2014,09,22,10,56,17.70
2014,09,22,10,57,17.70
2014,09,22,10,58,17.80
2014,09,22,10,59,17.80
2014,09,22,11,00,17.90
2014,09,22,11,01,18.00
2014,09,22,11,02,18.10
2014,09,22,11,03,18.20
2014,09,22,11,04,18.30
2014,09,22,11,05,18.40
2014,09,22,11,06,18.50
2014,09,22,11,07,18.60
2014,09,22,11,08,18.70
2014,09,22,11,09,18.80
2014,09,22,11,10,18.90
2014,09,22,11,11,19.00
2014,09,22,11,12,19.10
2014,09,22,11,13,19.20
2014,09,22,11,14,19.30
2014,09,22,11,15,19.40
2014,09,22,11,16,19.50
2014,09,22,11,17,19.60
2014,09,22,11,18,19.70
2014,09,22,11,19,19.90
2014,09,22,11,20,20.00
2014,09,22,11,21,20.10
2014,09,22,11,22,20.20
2014,09,22,11,23,20.20
2014,09,22,11,24,20.20
2014,09,22,11,25,20.10
2014,09,22,11,26,20.10
2014,09,22,11,27,20.10
2014,09,22,11,28,20.20
2014,09,22,11,29,20.30
2014,09,22,11,30,20.30
2014,09,22,11,31,20.30
2014,09,22,11,32,20.20
2014,09,22,11,33,20.20
2014,09,22,11,34,20.10
2014,09,22,11,35,20.10
2014,09,22,11,36,20.10
2014,09,22,11,37,20.00
2014,09,22,11,38,19.90
2014,09,22,11,39,19.90
2014,09,22,11,40,19.80
2014,09,22,11,41,19.80
2014,09,22,11,42,19.80
2014,09,22,11,43,19.80
2014,09,22,11,44,19.80
2014,09,22,11,45,19.90
2014,09,22,11,46,20.00
2014,09,22,11,47,20.10
2014,09,22,11,48,20.10
2014,09,22,11,49,20.10
2014,09,22,11,50,20.20
2014,09,22,11,51,20.20
2014,09,22,11,52,20.20
2014,09,22,11,53,20.20
2014,09,22,11,54,20.30
2014,09,22,11,55,20.30
2014,09,22,11,56,20.30
2014,09,22,11,57,20.30
2014,09,22,11,58,20.30
2014,09,22,11,59,20.30
2014,09,22,12,00,20.20
2014,09,22,12,01,20.20
2014,09,22,12,02,20.20
2014,09,22,12,03,20.30
2014,09,22,12,04,20.40
2014,09,22,12,05,20.40
2014,09,22,12,06,20.30
2014,09,22,12,07,20.30
2014,09,22,12,08,20.20
2014,09,22,12,09,20.20
2014,09,22,12,10,20.20
2014,09,22,12,11,20.20
2014,09,22,12,12,20.20
2014,09,22,12,13,20.20
2014,09,22,12,14,20.30
2014,09,22,12,15,20.30
2014,09,22,12,16,20.40
2014,09,22,12,17,20.40
2014,09,22,12,18,20.40
2014,09,22,12,19,20.50
2014,09,22,12,20,20.70
2014,09,22,12,21,20.80
2014,09,22,12,22,20.80
2014,09,22,12,23,20.80
2014,09,22,12,24,20.70
2014,09,22,12,25,20.70
2014,09,22,12,26,20.70
2014,09,22,12,27,20.70
2014,09,22,12,28,20.70
2014,09,22,12,29,20.60
2014,09,22,12,30,20.60
2014,09,22,12,31,20.70
2014,09,22,12,32,20.80
2014,09,22,12,33,20.70
2014,09,22,12,34,20.60
2014,09,22,12,35,20.40
2014,09,22,12,36,20.40
2014,09,22,12,37,20.30
2014,09,22,12,38,20.20
2014,09,22,12,39,20.20
2014,09,22,12,40,20.20
2014,09,22,12,41,20.20
2014,09,22,12,42,20.30
2014,09,22,12,43,20.40
2014,09,22,12,44,20.40
2014,09,22,12,45,20.30
2014,09,22,12,46,20.40
2014,09,22,12,47,20.40
2014,09,22,12,48,20.40
2014,09,22,12,49,20.30
2014,09,22,12,50,20.30
2014,09,22,12,51,20.20
2014,09,22,12,52,20.20
2014,09,22,12,53,20.20
2014,09,22,12,54,20.20
2014,09,22,12,55,20.10
2014,09,22,12,56,20.00
2014,09,22,12,57,19.90
2014,09,22,12,58,19.90
2014,09,22,12,59,19.80
2014,09,22,13,00,19.80
2014,09,22,13,01,19.80
2014,09,22,13,02,19.90
2014,09,22,13,03,19.90
2014,09,22,13,04,20.00
2014,09,22,13,05,20.10
2014,09,22,13,06,20.20
2014,09,22,13,07,20.20
2014,09,22,13,08,20.20
2014,09,22,13,09,20.10
2014,09,22,13,10,20.10
2014,09,22,13,11,20.10
2014,09,22,13,12,20.10
2014,09,22,13,13,20.30
2014,09,22,13,14,20.30
2014,09,22,13,15,20.40
2014,09,22,13,16,20.50
2014,09,22,13,17,20.60
2014,09,22,13,18,20.70
2014,09,22,13,19,20.70
2014,09,22,13,20,20.60
2014,09,22,13,21,20.60
2014,09,22,13,22,20.50
2014,09,22,13,23,20.40
2014,09,22,13,24,20.30
2014,09,22,13,25,20.30
2014,09,22,13,26,20.40
2014,09,22,13,27,20.40
2014,09,22,13,28,20.60
2014,09,22,13,29,20.70
2014,09,22,13,30,20.90
2014,09,22,13,31,20.90
2014,09,22,13,32,20.70
2014,09,22,13,33,20.40
2014,09,22,13,34,20.10
2014,09,22,13,35,19.90
2014,09,22,13,36,19.80
2014,09,22,13,37,19.80
2014,09,22,13,38,19.80
2014,09,22,13,39,19.80
2014,09,22,13,40,19.70
2014,09,22,13,41,19.70
2014,09,22,13,42,19.50
2014,09,22,13,43,19.40
2014,09,22,13,44,19.40
2014,09,22,13,45,19.40
2014,09,22,13,46,19.40
2014,09,22,13,47,19.40
2014,09,22,13,48,19.40
2014,09,22,13,49,19.30
2014,09,22,13,50,19.30
2014,09,22,13,51,19.30
2014,09,22,13,52,19.30
2014,09,22,13,53,19.30
2014,09,22,13,54,19.30
2014,09,22,13,55,19.30
2014,09,22,13,56,19.40
2014,09,22,13,57,19.40
2014,09,22,13,58,19.40
2014,09,22,13,59,19.40
2014,09,22,14,00,19.40
2014,09,22,14,01,19.30
2014,09,22,14,02,19.20
2014,09,22,14,03,19.20
2014,09,22,14,04,19.20
2014,09,22,14,05,19.30
2014,09,22,14,06,19.30
2014,09,22,14,07,19.30
2014,09,22,14,08,19.30
2014,09,22,14,09,19.20
2014,09,22,14,10,19.20
2014,09,22,14,11,19.20
2014,09,22,14,12,19.20
2014,09,22,14,13,19.20
2014,09,22,14,14,19.10
2014,09,22,14,15,19.10
2014,09,22,14,16,19.10
2014,09,22,14,17,19.10
2014,09,22,14,18,19.10
2014,09,22,14,19,19.10
2014,09,22,14,20,19.20
2014,09,22,14,21,19.20
2014,09,22,14,22,19.20
2014,09,22,14,23,19.10
2014,09,22,14,24,19.10
2014,09,22,14,25,19.00
2014,09,22,14,26,19.00
2014,09,22,14,27,18.90
2014,09,22,14,28,18.90
2014,09,22,14,29,18.90
2014,09,22,14,30,19.00
2014,09,22,14,31,19.00
2014,09,22,14,32,19.10
2014,09,22,14,33,19.10
2014,09,22,14,34,19.10
2014,09,22,14,35,19.10
2014,09,22,14,36,19.20
2014,09,22,14,37,19.20
2014,09,22,14,38,19.20
2014,09,22,14,39,19.10
2014,09,22,14,40,19.10
2014,09,22,14,41,19.10
2014,09,22,14,42,19.10
2014,09,22,14,43,19.20
2014,09,22,14,44,19.20
2014,09,22,14,45,19.20
2014,09,22,14,46,19.30
2014,09,22,14,47,19.30
2014,09,22,14,48,19.30
2014,09,22,14,49,19.30
2014,09,22,14,50,19.40
2014,09,22,14,51,19.40
2014,09,22,14,52,19.40
2014,09,22,14,53,19.50
2014,09,22,14,54,19.50
2014,09,22,14,55,19.50
2014,09,22,14,56,19.50
2014,09,22,14,57,19.60
2014,09,22,14,58,19.60
2014,09,22,14,59,19.60
2014,09,22,15,00,19.60
2014,09,22,15,01,19.60
2014,09,22,15,02,19.60
2014,09,22,15,03,19.60
2014,09,22,15,04,19.60
2014,09,22,15,05,19.60
2014,09,22,15,06,19.50
2014,09,22,15,07,19.50
2014,09,22,15,08,19.50
2014,09,22,15,09,19.60
2014,09,22,15,10,19.60
2014,09,22,15,11,19.60
2014,09,22,15,12,19.70
2014,09,22,15,13,19.60
2014,09,22,15,14,19.50
2014,09,22,15,15,19.50
2014,09,22,15,16,19.40
2014,09,22,15,17,19.40
2014,09,22,15,18,19.40
2014,09,22,15,19,19.40
2014,09,22,15,20,19.40
2014,09,22,15,21,19.40
2014,09,22,15,22,19.40
2014,09,22,15,23,19.40
2014,09,22,15,24,19.40
2014,09,22,15,25,19.40
2014,09,22,15,26,19.40
2014,09,22,15,27,19.40
2014,09,22,15,28,19.40
2014,09,22,15,29,19.30
2014,09,22,15,30,19.30
2014,09,22,15,31,19.30
2014,09,22,15,32,19.30
2014,09,22,15,33,19.30
2014,09,22,15,34,19.30
2014,09,22,15,35,19.30
2014,09,22,15,36,19.30
2014,09,22,15,37,19.30
2014,09,22,15,38,19.40
2014,09,22,15,39,19.40
2014,09,22,15,40,19.40
2014,09,22,15,41,19.40
2014,09,22,15,42,19.40
2014,09,22,15,43,19.40
2014,09,22,15,44,19.40
2014,09,22,15,45,19.40
2014,09,22,15,46,19.40
2014,09,22,15,47,19.40
2014,09,22,15,48,19.40
2014,09,22,15,49,19.40
2014,09,22,15,50,19.40
2014,09,22,15,51,19.30
2014,09,22,15,52,19.30
2014,09,22,15,53,19.30
2014,09,22,15,54,19.30
2014,09,22,15,55,19.30
2014,09,22,15,56,19.30
2014,09,22,15,57,19.30
2014,09,22,15,58,19.30
2014,09,22,15,59,19.30
2014,09,22,16,00,19.30
2014,09,22,16,01,19.20
2014,09,22,16,02,19.20
2014,09,22,16,03,19.20
2014,09,22,16,04,19.20
2014,09,22,16,05,19.20
2014,09,22,16,06,19.20
2014,09,22,16,07,19.20
2014,09,22,16,08,19.20
2014,09,22,16,09,19.20
2014,09,22,16,10,19.20
2014,09,22,16,11,19.20
2014,09,22,16,12,19.10
2014,09,22,16,13,19.10
2014,09,22,16,14,19.10
2014,09,22,16,15,19.10
2014,09,22,16,16,19.10
2014,09,22,16,17,19.10
2014,09,22,16,18,19.10
2014,09,22,16,19,19.10
2014,09,22,16,20,19.10
2014,09,22,16,21,19.10
2014,09,22,16,22,19.10
2014,09,22,16,23,19.10
2014,09,22,16,24,19.00
2014,09,22,16,25,19.00
2014,09,22,16,26,19.00
2014,09,22,16,27,19.00
2014,09,22,16,28,19.00
2014,09,22,16,29,19.00
2014,09,22,16,30,19.00
2014,09,22,16,31,18.90
2014,09,22,16,32,18.90
2014,09,22,16,33,18.90
2014,09,22,16,34,18.90
2014,09,22,16,35,18.90
2014,09,22,16,36,18.80
2014,09,22,16,37,18.80
2014,09,22,16,38,18.80
2014,09,22,16,39,18.80
2014,09,22,16,40,18.80
2014,09,22,16,41,18.80
2014,09,22,16,42,18.80
2014,09,22,16,43,18.80
2014,09,22,16,44,18.80
2014,09,22,16,45,18.80
2014,09,22,16,46,18.80
2014,09,22,16,47,18.80
2014,09,22,16,48,18.80
2014,09,22,16,49,18.80
2014,09,22,16,50,18.80
2014,09,22,16,51,18.80
2014,09,22,16,52,18.80
2014,09,22,16,53,18.80
2014,09,22,16,54,18.80
2014,09,22,16,55,18.80
2014,09,22,16,56,18.80
2014,09,22,16,57,18.80
2014,09,22,16,58,18.80
2014,09,22,16,59,18.80
2014,09,22,17,00,18.80
2014,09,22,17,01,18.80
2014,09,22,17,02,18.80
2014,09,22,17,03,18.80
2014,09,22,17,04,18.90
2014,09,22,17,05,18.90
2014,09,22,17,06,18.90
2014,09,22,17,07,18.90
2014,09,22,17,08,18.90
2014,09,22,17,09,18.90
2014,09,22,17,10,19.00
2014,09,22,17,11,19.00
2014,09,22,17,12,19.10
2014,09,22,17,13,19.20
2014,09,22,17,14,19.20
2014,09,22,17,15,19.20
2014,09,22,17,16,19.20
2014,09,22,17,17,19.30
2014,09,22,17,18,19.30
2014,09,22,17,19,19.30
2014,09,22,17,20,19.30
2014,09,22,17,21,19.30
2014,09,22,17,22,19.30